Find Starlink 31651

NORAD ID: 59860 Int'l Des: 2024-098 Owner: SPXS Country: US Constellation: starlink operational
LEOCIRCULAR

当前视图

正在加载3D地球...

About Starlink 31651

Starlink 31651 (NORAD 59860) is a starlink constellation satellite (v2 mini) launched May 24, 2024 by SPXS of US. It operates in LEO, CIRCULAR orbit with a mass of 730.00 kg.

即将过境

Passes for default location (London). Set your location on the main map for personalized predictions.

高度历史

Loading altitude history...

两行轨道根数

1 59860U 24098C 26264.04707007 .00000113 00000-0 13641-4 0 9990
2 59860 43.0032 254.7140 0001387 272.9116 87.1577 15.27574592131728
Epoch: Sep 21, 2026 • Age: 13 hours

当前状态

高度 482.3 km
远地点 / 近地点 N/A
速度 7.63 km/s
星下点 13.68°N, 59.75°E
发射日期 May 24, 2024
运行时间 2.3 years
类型 internet

技术详情

分类 Payload
质量 730.00 kg
干质量 700.00 kg
长度 0.30 m
跨度 29.00 m
形状 ? Box + pan
制造商 SPXS
平台类型 Starlink V2M
阶段状态 In Orbit
所有者/国家 SPXS/US

Most Searched